This is the latest recevied weather packets stored in our database for station/object KK7RJD. If no packets are shown the sender has not sent any weather packets the latest 10 day(s).
| Time | Temp. | Humidity | Pressure | Rain* | Wind** | Luminosity | Snow |
|---|---|---|---|---|---|---|---|
| 1777469938 | 3.33° C | 76% | 1020.3 hPa | 0 mm | - | 62 W/m² | - |
| 1777469634 | 3.33° C | 76% | 1020.3 hPa | 0 mm | - | 64 W/m² | - |
| 1777469329 | 2.78° C | 77% | 1020.3 hPa | 0 mm | - | 64 W/m² | - |
| 1777469025 | 2.78° C | 78% | 1020.3 hPa | 0 mm | - | 54 W/m² | - |
| 1777468720 | 2.78° C | 77% | 1020.5 hPa | 0 mm | - | 47 W/m² | - |
| 1777468417 | 2.78° C | 77% | 1020.3 hPa | 0 mm | - | 44 W/m² | - |
| 1777468112 | 2.78° C | 77% | 1020.2 hPa | 0 mm | - | 46 W/m² | - |
| 1777467809 | 2.78° C | 78% | 1020.5 hPa | 0 mm | - | 47 W/m² | - |
| 1777467504 | 2.78° C | 77% | 1020.2 hPa | 0 mm | - | 48 W/m² | - |
| 1777467200 | 2.78° C | 77% | 1020.2 hPa | 0 mm | - | 58 W/m² | - |
| 1777466897 | 2.78° C | 77% | 1020.1 hPa | 0 mm | - | 53 W/m² | - |
| 1777466595 | 2.22° C | 78% | 1020.1 hPa | 0 mm | - | 47 W/m² | - |
| 1777466292 | 1.67° C | 80% | 1020 hPa | 0 mm | - | 41 W/m² | - |
| 1777465988 | 1.11° C | 82% | 1020 hPa | 0 mm | - | 32 W/m² | - |
| 1777465684 | 0.56° C | 83% | 1020 hPa | 0 mm | - | 23 W/m² | - |
| 1777465379 | 0.56° C | 84% | 1020 hPa | 0 mm | - | 15 W/m² | - |
| 1777465078 | 0° C | 85% | 1020 hPa | 0 mm | - | 10 W/m² | - |
| 1777464774 | 0° C | 86% | 1020 hPa | 0 mm | - | 6 W/m² | - |
| 1777464470 | 0° C | 86% | 1019.9 hPa | 0 mm | - | 3 W/m² | - |
| 1777464166 | -0.56° C | 87% | 1020 hPa | 0 mm | - | 2 W/m² | - |
| 1777463866 | -0.56° C | 87% | 1019.9 hPa | 0 mm | - | 1 W/m² | - |
| 1777463561 | -1.11° C | 88% | 1020 hPa | 0 mm | - | 0 W/m² | - |
| 1777463257 | -1.11° C | 86% | 1020.1 hPa | 0 mm | - | 0 W/m² | - |
| 1777462953 | -0.56° C | 86% | 1020 hPa | 0 mm | - | 0 W/m² | - |
| 1777462649 | -0.56° C | 85% | 1020 hPa | 0 mm | - | 0 W/m² | - |
* Rain latest hour (hover to see other rain measurements)
** Current wind speed in m/s (hover to see current wind gust speed)